STARLINK-32506, 62167

Orbit data source: Space-Track

STARLINK-32506, 62167 is a payload satellite owned by SpaceX/Seattle (US) in LEO that was launched on Sat, 30 Nov 2024 UTC via an FALCON 9 launch vehicle from the Air Force Western Test Range (AFWTR). Payload-class satellites include a variety of spacecraft equipped with specific instruments for various scientific and technological missions. These include communications satellites like Starlink; space stations such as the ISS; scientific satellites like the Hubble; Earth observation satellites from companies like Planet Labs, Umbra, and HawkEye 360; GPS; miniature CubeSats for education and research; and military/defense satellites.

Loading next visibility...
Identifier
62167, 2024-225E
Orbit
LEO
Country
Flag of USUS
Related business
Manufacturer
SpaceX/Seattle
Mission
Operational Commercial Communications
Bus & Motor
STARLINK V2M, Unknown motor
Mass
730 kg wet, ~700 kg dry
Launch date (UTC)
2024-11-30 (1 year ago)
Launch vehicle
FALCON 9
Launch site
Air Force Western Test Range (AFWTR)
Object type
Payload
Rocket body
Debris
Shape & HBR
Box + 2 Pan, 17.7 m
Radar Cross Section
33.884 m², Large (>1 m²)

Expand to show TLE details & history
Last TLE update: 13 hours ago

TLE from 13 hours ago
0 STARLINK-32506
1 62167U 24225E   26062.70214460  .00006472  00000-0  54959-3 0  9991
2 62167  70.0033 179.7331 0003062 269.8441  90.2367 14.98337427 68978
Epoch: 2026-03-03T16:51Z
TLE epoch observation values (Epoch: 2026-03-03T16:51:05.293Z)
Latitude
-0.00004°
Longitude
125.48362°
Altitude
574.466 km
Speed
7.574 km/s
True Right ascension
11h 58m 55s
True Declination
0° 00' 00"
Sunlit
Object was in full shadow at epoch
Visualization orbit readout
Latitude
Unknown
Longitude
Unknown
Altitude
Unknown
Speed
Unknown
Apparent Right ascension
Unknown
Apparent Declination
Unknown
Sunlit
N/A
Visualization observer readout
Local Sidereal Time
10:02:07
Azimuth
Unknown
Elevation
Unknown
Doppler factor
Unknown
Orbital elements
Apogee altitude
572.108 km
Perigee altitude
567.853 km
Semi-major axis
6,948.118 km
Eccentricity
0.00031
Inclination
70.0033°
RAAN
179.7331°
Arg. of periapsis
269.8441°
True anomaly
90.27179°
Mean anomaly
90.2367°
Eccentric anomaly
90.25424°
Mean motion
3.74751 °/min
Orbital period
96.06 mins
BSTAR
0.00054959
Loading maneuver chart data...
Computing Atmospheric mass density...
Loading historical data...
Loading historical data...
Loading historical data...
Loading historical data...
Loading historical data...
Loading historical data...
Loading historical data...

Documentation

Showing up to 5 results
|